カタログに戻る

COSMOS 1275 DEB

運用中PO
NORAD 20087·DEBRIS·🇷🇺 Russia

打ち上げ Jun 4, 1981 から Plesetsk Cosmodrome

Loading…

次のパス (今後24時間)

TLE

最新Source: Space-Track

元期: Sep 14, 2026, 11:22 UTC

1 20087U 81053MJ  26257.47361138  .00000907  00000-0  81192-3 0  9999
2 20087  82.9863  69.9387 0102801 224.3559 164.2931 13.81030308866844

AllMySatでCOSMOS 1275 DEBをリアルタイム追跡

Download on the App Store